Fairmont, MN

5:12 PM CDT on April 22, 2018 (GMT -0500)
Fairmont Municipal

Weather History for KFRM - April, 2013

Change the Weather History Date:

Tuesday, April 16, 2013

  Actual Average Record
Temperature  
Mean Temperature 38 °F -  
Max Temperature 42 °F 58 °F 87 °F (1964)
Min Temperature 35 °F 38 °F 18 °F (2018)
Degree Days  
Heating Degree Days 26    
Moisture  
Dew Point 26 °F    
Average Humidity 57    
Maximum Humidity 65    
Minimum Humidity 49    
Precipitation  
Precipitation 0.00 in - - ()
Sea Level Pressure  
Sea Level Pressure 30.18 in    
Wind  
Wind Speed - (North)    
Max Wind Speed -    
Max Gust Speed -    
Visibility 10 miles    
Events      
Averages and records for this station are not official NWS values.
T = Trace of Precipitation, MM = Missing Value Source: NWS Daily Summary

Daily Weather History Graph

Daily Weather History Graph

Search for Another Location

Airport or City:

Astronomy

Apr. 16, 2013 Rise Set
Actual Time 6:32 AM CDT 8:02 PM CDT
Civil Twilight 6:02 AM CDT 8:32 PM CDT
Nautical Twilight 5:26 AM CDT 9:09 PM CDT
Astronomical Twilight 4:48 AM CDT 9:47 PM CDT
Moon 10:47 AM CDT (4/16) 1:05 AM CDT (4/16)
Length of Visible Light 14h 29m
Length of Day
13h 29m
Waxing Crescent, 33% of the Moon is Illuminated
Apr 16
Waxing Crescent
Apr 18
First Quarter
Apr 25
Full
May 2
Last Quarter
May 9
New

Hourly Weather History & Observations

Time (CDT) Temp. Dew Point Humidity Pressure Visibility Wind Dir Wind Speed Gust Speed Precip Events Conditions
12:15 AM 39.2 °F 26.6 °F 61% 30.05 in 10.0 mi North - - N/A   Partly Cloudy
12:35 AM 39.2 °F 26.6 °F 61% 30.05 in 10.0 mi North - - N/A   Clear
12:55 AM 39.2 °F 26.6 °F 61% 30.05 in 10.0 mi North - - N/A   Clear
1:15 AM 39.2 °F 26.6 °F 61% 30.06 in 10.0 mi North - - N/A   Partly Cloudy
1:35 AM 39.2 °F 26.6 °F 61% 30.06 in 10.0 mi North - - N/A   Scattered Clouds
1:55 AM 39.2 °F 26.6 °F 61% 30.05 in 10.0 mi North - - N/A   Partly Cloudy
2:15 AM 39.2 °F 26.6 °F 61% 30.06 in 10.0 mi North - - N/A   Clear
2:35 AM 39.2 °F 26.6 °F 61% 30.08 in 10.0 mi North - - N/A   Partly Cloudy
2:55 AM 39.2 °F 26.6 °F 61% 30.07 in 10.0 mi North - - N/A   Scattered Clouds
3:15 AM 37.4 °F 26.6 °F 65% 30.08 in 10.0 mi North - - N/A   Clear
3:35 AM 37.4 °F 24.8 °F 60% 30.09 in 10.0 mi North - - N/A   Clear
3:55 AM 37.4 °F 24.8 °F 60% 30.10 in 10.0 mi North - - N/A   Clear
4:15 AM 37.4 °F 24.8 °F 60% 30.10 in 10.0 mi North - - N/A   Clear
4:35 AM 37.4 °F 23.0 °F 56% 30.09 in 10.0 mi North - - N/A   Clear
4:55 AM 35.6 °F 23.0 °F 60% 30.10 in 10.0 mi North - - N/A   Clear
5:15 AM 35.6 °F 23.0 °F 60% 30.12 in 10.0 mi North - - N/A   Clear
5:35 AM 35.6 °F 23.0 °F 60% 30.13 in 10.0 mi North - - N/A   Clear
5:55 AM 37.4 °F 23.0 °F 56% 30.14 in 10.0 mi North - - N/A   Clear
6:15 AM 37.4 °F 23.0 °F 56% 30.14 in 10.0 mi North - - N/A   Clear
6:35 AM 37.4 °F 23.0 °F 56% 30.15 in 10.0 mi North - - N/A   Clear
7:15 AM 37.4 °F 23.0 °F 56% 30.17 in 10.0 mi North - - N/A   Clear
7:35 AM 37.4 °F 23.0 °F 56% 30.17 in 10.0 mi North - - N/A   Clear
7:55 AM 37.4 °F 24.8 °F 60% 30.20 in 10.0 mi North - - N/A   Clear
8:15 AM 39.2 °F 24.8 °F 56% 30.21 in 10.0 mi North - - N/A   Clear
8:35 AM 39.2 °F 23.0 °F 52% 30.21 in 10.0 mi North - - N/A   Clear
8:55 AM 39.2 °F 23.0 °F 52% 30.21 in 10.0 mi North - - N/A   Clear
9:15 AM 39.2 °F 23.0 °F 52% 30.21 in 10.0 mi North - - N/A   Clear
9:35 AM 39.2 °F 23.0 °F 52% 30.23 in 10.0 mi North - - N/A   Partly Cloudy
9:55 AM 39.2 °F 24.8 °F 56% 30.23 in 10.0 mi North - - N/A   Scattered Clouds
10:15 AM 41.0 °F 24.8 °F 53% 30.24 in 10.0 mi North - - N/A   Scattered Clouds
10:35 AM 42.8 °F 24.8 °F 49% 30.25 in 10.0 mi North - - N/A   Scattered Clouds
10:55 AM 42.8 °F 26.6 °F 53% 30.25 in 10.0 mi North - - N/A   Mostly Cloudy
11:15 AM 42.8 °F 26.6 °F 53% 30.26 in 10.0 mi North - - N/A   Overcast
11:35 AM 42.8 °F 26.6 °F 53% 30.27 in 10.0 mi North - - N/A   Overcast
11:55 AM - - N/A% 30.27 in 10.0 mi North - - N/A   Mostly Cloudy
12:15 PM - - N/A% - 10.0 mi North - - N/A   Mostly Cloudy
12:35 PM - - N/A% - 10.0 mi North - - N/A   Mostly Cloudy
12:55 PM - - N/A% - 10.0 mi North - - N/A   Mostly Cloudy
1:15 PM - - N/A% - 10.0 mi North - - N/A   Mostly Cloudy
1:35 PM - - N/A% - 10.0 mi North - - N/A   Mostly Cloudy
1:55 PM - - N/A% - 10.0 mi North - - N/A   Mostly Cloudy
2:15 PM - - N/A% - 10.0 mi North - - N/A   Mostly Cloudy
2:35 PM - - N/A% - 10.0 mi North - - N/A   Overcast
2:55 PM - - N/A% - 10.0 mi North - - N/A   Mostly Cloudy
3:15 PM - - N/A% - 10.0 mi North - - N/A   Mostly Cloudy
3:35 PM - - N/A% - 10.0 mi North - - N/A   Mostly Cloudy
3:55 PM - - N/A% - 10.0 mi North - - N/A   Mostly Cloudy
4:15 PM - - N/A% - 10.0 mi North - - N/A   Scattered Clouds
4:35 PM - - N/A% - 10.0 mi North - - N/A   Mostly Cloudy
4:55 PM - - N/A% - 10.0 mi North - - N/A   Mostly Cloudy
5:15 PM - - N/A% - 10.0 mi North - - N/A   Scattered Clouds
5:35 PM - - N/A% - 10.0 mi North - - N/A   Scattered Clouds
5:55 PM - - N/A% - 10.0 mi North - - N/A   Clear
6:15 PM - - N/A% - 10.0 mi North - - N/A   Clear
6:35 PM - - N/A% - 10.0 mi North - - N/A   Clear
6:55 PM - - N/A% - 10.0 mi North - - N/A   Partly Cloudy
7:15 PM - - N/A% - 10.0 mi North - - N/A   Clear
7:35 PM - - N/A% - 10.0 mi North - - N/A   Clear
7:55 PM - - N/A% - 10.0 mi North - - N/A   Clear
8:15 PM - - N/A% - 10.0 mi North - - N/A   Partly Cloudy
8:35 PM 42.8 °F 28.4 °F 57% 30.28 in 10.0 mi North - - N/A   Partly Cloudy
8:55 PM 42.8 °F 28.4 °F 57% 30.30 in 10.0 mi North - - N/A   Clear
9:15 PM 42.8 °F 28.4 °F 57% 30.30 in 10.0 mi North - - N/A   Partly Cloudy
9:35 PM 42.8 °F 28.4 °F 57% 30.30 in 10.0 mi North - - N/A   Mostly Cloudy
9:55 PM 42.8 °F 28.4 °F 57% 30.30 in 10.0 mi North - - N/A   Overcast
10:15 PM 42.8 °F 28.4 °F 57% 30.30 in 10.0 mi North - - N/A   Overcast
10:35 PM 42.8 °F 28.4 °F 57% 30.31 in 10.0 mi North - - N/A   Overcast
10:55 PM 42.8 °F 28.4 °F 57% 30.31 in 10.0 mi North - - N/A   Overcast
11:15 PM 42.8 °F 28.4 °F 57% 30.31 in 10.0 mi North - - N/A   Overcast
11:35 PM 42.8 °F 28.4 °F 57% 30.30 in 10.0 mi North - - N/A   Overcast
11:55 PM 41.0 °F 28.4 °F 61% 30.29 in 10.0 mi North - - N/A   Overcast